Barcroft Research Lab Weather observations

Data are for 10 minute period ending at time listed.
 Day   Time   Solar   Ave.   Ave.  Ave.  Vector  Std.   Max.    Baro.    
  of    of     Rad.   Air    Rel.  Wind   Wind   Dev.   Wind   Press.    
Year   Day            Temp.  Hum.  Speed  Dir.   Dir.   Gust            
2014   (PST)  Kw/m2    F      %     mph   deg.   deg.    mph     mb.    
------------------------------------------------------------------------
 112    6:30     124   17.6    98   24.3   264    -99    44.2   633.60  
 112    6:40     122   17.8    98   23.7   256    -99    42.3   633.60  
 112    6:50     203   17.9    97   25.8   253    -99    37.6   633.60  
 112    7:00     489   18.3    97   26.9   256    -99    43.5   633.60  
 112    7:10     732   18.7    97   30.1   254    -99    45.7   632.60  
 112    7:20     687   18.6    96   30.8   250    -99    50.3   632.60  
 112    7:30     732   18.3    94   30.7   252    -99    49.9   632.60  
 112    7:40     756   18.2    86   31.6   254    -99    45.7   632.60  
 112    7:50     807   18.6    82   28.4   256    -99    44.0   632.60  
 112    8:00     845   19.3    76   29.6   249    -99    46.5   632.60  
 112    8:10     851   19.8    65   28.2   247    -99    46.0   632.90  
 112    8:20     757   19.6    65   23.3   254    -99    43.0   632.90  
 112    8:30     657   18.3    56   21.8   260    -99    51.4   632.90  
 112    8:40     804   18.0    45   22.2   261    -99    40.3   632.90  
 112    8:50     898   18.0    44   25.7   257    -99    53.2   632.90  
 112    9:00     914   17.8    41   26.7   256    -99    50.1   632.90  
 112    9:10     930   17.7    38   25.9   259    -99    47.3   632.70  
 112    9:20     944   17.8    40   22.7   268    -99    40.4   632.70  
 112    9:30     957   17.8    42   25.6   260    -99    48.6   632.70  
 112    9:40     972   18.0    43   23.2   266    -99    44.9   632.70  
 112    9:50     983   17.7    43   23.1   266    -99    51.4   632.70  
 112   10:00     999   18.0    46   22.4   272    -99    44.5   632.70  
 112   10:10     988   17.7    50   23.7   266    -99    49.8   633.20  
 112   10:20     884   17.9    54   24.4   269    -99    42.2   633.20  
 112   10:30    1049   18.5    45   25.8   284    -99    39.4   633.20  
 112   10:40    1007   17.7    46   28.8   285    -99    48.2   633.20  
 112   10:50    1003   17.4    50   32.2   285    -99    52.5   633.20  
 112   11:00    1003   17.2    51   30.8   282    -99    46.2   633.20  
 112   11:10     999   17.2    46   32.6   282    -99    48.8   632.60  
 112   11:20     996   17.2    46   30.2   286    -99    52.0   632.60  
 112   11:30     938   17.3    49   28.4   280    -99    50.2   632.60  
 112   11:40     978   17.5    49   26.2   278    -99    42.4   632.60  
 112   11:50     969   17.4    47   24.0   280    -99    38.2   632.60  
 112   12:00     958   17.7    48   20.9   285    -99    38.1   632.60  
 112   12:10     933   17.9    47   20.3   286    -99    36.3   633.40  
 112   12:20     928   18.0    45   19.3   292    -99    34.0   633.40  
 112   12:30     911   18.1    44   18.8   293    -99    33.0   633.40  
 112   12:40     893   18.1    44   18.5   301    -99    36.3   633.40  
 112   12:50     874   18.2    44   19.5   294    -99    34.7   633.40  
 112   13:00     852   18.0    45   20.9   288    -99    34.8   633.40  
 112   13:10     830   18.0    43   23.6   280    -99    44.1   633.90  
 112   13:20     807   17.9    44   23.0   284    -99    36.5   633.90  
 112   13:30     781   17.9    45   24.5   296    -99    40.5   633.90  
 112   13:40     757   17.8    44   24.0   300    -99    37.6   633.90  
 112   13:50     731   17.9    45   23.2   293    -99    38.1   633.90  
 112   14:00     700   17.6    44   25.7   278    -99    35.7   633.90  
 112   14:10     668   17.4    46   24.7   274    -99    36.2   634.30  
 112   14:20     636   17.0    46   24.8   272    -99    38.9   634.30  
 112   14:30     603   17.1    44   23.3   276    -99    33.0   634.30  
 112   14:40     571   17.3    42   23.0   278    -99    33.2   634.30  
 112   14:50     537   17.1    47   22.4   280    -99    35.7   634.30  
 112   15:00     502   16.8    45   24.1   280    -99    37.4   634.30  
 112   15:10     465   16.6    49   21.5   279    -99    33.5   634.50  
 112   15:20     429   16.6    47   21.4   276    -99    34.1   634.50  
 112   15:30     392   16.3    50   20.6   277    -99    29.8   634.50  
 112   15:40     355   16.1    52   20.6   278    -99    34.4   634.50  
 112   15:50     318   15.9    54   21.7   283    -99    31.8   634.50  
 112   16:00     280   15.7    57   21.0   286    -99    31.2   634.50  
 112   16:10     152   15.2    58   19.3   284    -99    28.1   634.60  
 112   16:20      22   14.2    63   16.3   278    -99    26.4   634.60  
 112   16:30      21   14.0    66   16.6   279    -99    25.3   634.60  
 112   16:40      19   13.6    68   17.6   284    -99    26.3   634.60  
 112   16:50      17   13.3    70   18.6   290    -99    27.2   634.60  
 112   17:00      15   13.1    71   16.6   285    -99    23.1   634.60  
 112   17:10      12   12.9    73   15.7   282    -99    23.9   634.50  
 112   17:20       8   12.7    74   13.3   279    -99    19.6   634.50  
 112   17:30       4   12.6    74   13.8   271    -99    21.5   634.50  
 112   17:40       1   12.5    76   12.1   263    -99    21.3   634.50  
 112   17:50       0   12.0    79   10.1   274    -99    21.0   634.50  
 112   18:00       0   11.6    81   10.1   289    -99    16.7   634.50  
 112   18:10       0   11.3    82    8.2   286    -99    14.0   635.10  
 112   18:20       0   11.2    81    9.2   283    -99    16.1   635.10  
 112   18:30       0   11.1    81    8.7   276    -99    20.0   635.10  
 112   18:40       0   11.0    80    9.3   312    -99    16.0   635.10  
 112   18:50       0   11.2    76    9.9   312    -99    14.1   635.10  
 112   19:00       0   11.2    73    5.6   296    -99     9.9   635.10  
 112   19:10       0   11.1    67    7.2   283    -99    12.1   635.70  
 112   19:20       0   11.6    57   10.1   289    -99    17.1   635.70  
 112   19:30       0   11.9    56   10.5   285    -99    18.0   635.70  
 112   19:40       0   11.8    55    9.8   287    -99    16.0   635.70  
 112   19:50       0   12.0    51   11.0   276    -99    15.6   635.70  
 112   20:00       0   12.3    46   11.2   281    -99    17.2   635.70  
 112   20:10       0   12.3    46   12.2   294    -99    17.9   635.60  
 112   20:20       0   12.2    46   11.0   292    -99    17.6   635.60  
 112   20:30       0   12.2    43   12.0   274    -99    21.1   635.60  
 112   20:40       0   12.5    41   11.9   280    -99    17.8   635.60  
 112   20:50       0   12.8    39   13.6   278    -99    20.7   635.60  
 112   21:00       0   13.0    38   12.8   275    -99    22.9   635.60  
 112   21:10       0   13.0    39   11.4   278    -99    17.0   635.30  
 112   21:20       0   13.2    37   12.6   275    -99    17.9   635.30  
 112   21:30       0   13.1    35   14.4   282    -99    23.6   635.30  
 112   21:40       0   13.0    35   13.4   282    -99    19.8   635.30  
 112   21:50       0   13.3    32   15.1   276    -99    23.1   635.30  
 112   22:00       0   13.0    34   13.5   278    -99    18.2   635.30  
 112   22:10       0   12.8    35   12.8   286    -99    22.2   635.50  
 112   22:20       0   13.0    34   14.3   285    -99    20.3   635.50  
 112   22:30       0   13.1    33   14.1   282    -99    21.1   635.50  
 112   22:40       0   13.2    34   12.8   289    -99    20.1   635.50  
 112   22:50       0   13.2    34   14.3   289    -99    26.9   635.50  
 112   23:00       0   13.2    36   13.9   283    -99    21.9   635.50  
 112   23:10       0   13.0    37   12.7   287    -99    22.4   635.70  
 112   23:20       0   13.2    37   13.3   298    -99    20.7   635.70  
 112   23:30       0   13.5    38   12.2   288    -99    18.2   635.70  
 112   23:40       0   13.8    37   13.4   293    -99    20.3   635.70  
 112   23:50       0   13.9    37   13.4   286    -99    23.3   635.70  
 113    0:00       0   13.8    38   12.0   289    -99    20.4   635.70  
 113    0:10       0   13.7    38   12.7   296    -99    19.6   635.20  
 113    0:20       0   13.5    40   12.4   288    -99    17.7   635.20  
 113    0:30       0   13.4    39   12.1   278    -99    18.7   635.20  
 113    0:40       0   13.3    40   12.5   278    -99    24.0   635.20  
 113    0:50       0   13.4    41   12.4   280    -99    21.9   635.20  
 113    1:00       0   13.7    40   13.7   276    -99    25.3   635.20  
 113    1:10       0   13.4    46   12.2   288    -99    20.6   635.20  
 113    1:20       0   12.8    66   15.3   285    -99    28.4   635.20  
 113    1:30       0   12.5    66   13.4   289    -99    22.5   635.20  
 113    1:40       0   12.4    66   14.5   289    -99    21.6   635.20  
 113    1:50       0   12.1    78   13.9   299    -99    22.9   635.20  
 113    2:00       0   11.9    78   14.8   298    -99    22.1   635.20  
 113    2:10       0   12.2    71   12.6   289    -99    22.6   635.10  
 113    2:20       0   12.5    67   12.7   269    -99    23.4   635.10  
 113    2:30       0   12.6    61   10.9   265    -99    19.6   635.10  
 113    2:40       0   12.4    56   11.0   270    -99    22.3   635.10  
 113    2:50       0   12.4    56    9.8   270    -99    16.0   635.10  
 113    3:00       0   12.5    59    8.8   266    -99    18.0   635.10  
 113    3:10       0   12.5    63   10.0   278    -99    18.5   635.20  
 113    3:20       0   12.4    68    7.7   296    -99    16.1   635.20  
 113    3:30       0   12.3    73   10.4   300    -99    17.0   635.20  
 113    3:40       0   12.1    74    9.4   286    -99    17.0   635.20  
 113    3:50       1   12.1    76    8.2   290    -99    15.1   635.20  
 113    4:00       2   12.5    76   10.9   297    -99    20.7   635.20  
 113    4:10      31   12.6    74   10.7   280    -99    20.0   635.40  
 113    4:20      81   13.0    72   11.6   290    -99    17.7   635.40  
 113    4:30     101   13.4    71   12.4   303    -99    18.1   635.40  
 113    4:40     139   13.7    72   15.4   306    -99    21.9   635.40  
 113    4:50     204   14.0    76   14.7   306    -99    21.5   635.40  
 113    5:00     195   14.1    78   15.1   303    -99    21.2   635.40  
 113    5:10     207   13.9    78   13.6   303    -99    22.1   636.00  
 113    5:20     243   14.1    78   13.6   301    -99    21.0   636.00  
 113    5:30     279   14.4    79   13.4   304    -99    19.4   636.00  
 113    5:40     326   14.7    80   14.1   303    -99    21.8   636.00  
 113    5:50     353   14.7    80   14.0   304    -99    20.4   636.00  
 113    6:00     390   15.3    79   12.9   303    -99    20.7   636.00  
 113    6:10     426   15.7    78   10.4   289    -99    19.1   636.60  
 113    6:20     463   16.3    73   12.5   304    -99    21.0   636.60  

Return to Barcroft Research Lab graphs page.


Western Regional Climate Center,wrcc@dri.edu